Find Starlink 1997

NORAD ID: 47592 Int'l Des: 2021-009 Owner: SPXS Country: US Constellation: starlink operational
LEOCIRCULAR

現在のビュー

3D地球を読み込み中...

Starlink 1997について

説明を読み込み中...

次回通過

Passes for default location (London). Set your location on the main map for personalized predictions.

高度履歴

Loading altitude history...

軌道要素

1 47592U 21009AW 26150.66668981 .00281666 00000-0 10091-2 0 9995
2 47592 53.0314 311.8767 0007048 302.3843 353.2126 15.87493079 6023
Epoch: May 30, 2026 • Age: 6 hours

現在のステータス

高度 321.6 km
速度 7.72 km/s
衛星直下点 -49.99°S, 29°E
打ち上げ日 Feb 4, 2021
運用期間 5.3 years
タイプ internet

技術仕様

分類 Payload
質量 260.00 kg
乾燥質量 248.00 kg
総質量 260.00 kg
長さ 0.20 m
直径 2.80 m
スパン 9.00 m
形状 Box + pan
製造者 SPXS
バスタイプ Starlink
フェーズステータス In Orbit
所有者/国 SPXS/US

Most Searched